Time,TemperatureF,DewpointF,PressureIn,WindDirection,WindDirectionDegrees,WindSpeedMPH,WindSpeedGustMPH,Humidity,HourlyPrecipIn,Conditions,Clouds,dailyrainin,SoftwareType,DateUTC
2013-01-25 00:03:00,41.7,10.8,29.83,ESE,104,3.1,5.8,28,0.00,,,0.00,WUHU216WMR968SP,2013-01-25 06:03:00,
2013-01-25 00:08:00,41.7,10.8,29.83,ENE,64,2.2,5.8,28,0.00,,,0.00,WUHU216WMR968SP,2013-01-25 06:08:00,
2013-01-25 00:13:00,41.7,10.8,29.80,ESE,108,3.0,5.8,28,0.00,,,0.00,WUHU216WMR968SP,2013-01-25 06:13:00,
2013-01-25 00:18:00,41.9,10.9,29.80,SE,128,4.5,7.2,28,0.00,,,0.00,WUHU216WMR968SP,2013-01-25 06:18:00,
2013-01-25 00:24:00,41.9,10.9,29.80,East,98,2.8,7.2,28,0.00,,,0.00,WUHU216WMR968SP,2013-01-25 06:24:00,
2013-01-25 00:29:00,41.9,10.9,29.80,East,92,0.0,5.4,28,0.00,,,0.00,WUHU216WMR968SP,2013-01-25 06:29:00,
2013-01-25 00:35:00,42.1,11.1,29.80,SE,141,3.1,5.4,28,0.00,,,0.00,WUHU216WMR968SP,2013-01-25 06:35:00,
2013-01-25 00:40:00,42.1,11.1,29.80,East,85,2.2,5.4,28,0.00,,,0.00,WUHU216WMR968SP,2013-01-25 06:40:00,
2013-01-25 00:45:00,42.1,11.1,29.83,NNW,334,3.1,4.0,28,0.00,,,0.00,WUHU216WMR968SP,2013-01-25 06:45:00,
2013-01-25 00:50:00,42.1,11.1,29.83,NNE,19,2.5,4.0,28,0.00,,,0.00,WUHU216WMR968SP,2013-01-25 06:50:00,
2013-01-25 00:55:00,42.1,11.1,29.83,East,81,0.0,4.0,28,0.00,,,0.00,WUHU216WMR968SP,2013-01-25 06:55:00,
2013-01-25 01:00:00,42.1,11.1,29.83,NE,42,0.0,3.1,28,0.00,,,0.00,WUHU216WMR968SP,2013-01-25 07:00:00,
2013-01-25 01:04:00,42.1,11.1,29.83,NE,42,0.0,3.1,28,0.00,,,0.00,WUHU216WMR968SP,2013-01-25 07:04:00,
2013-01-25 01:09:00,42.1,11.1,29.83,NE,42,2.2,3.1,28,0.00,,,0.00,WUHU216WMR968SP,2013-01-25 07:09:00,
2013-01-25 01:14:00,42.3,11.3,29.83,ENE,62,0.0,3.1,28,0.00,,,0.00,WUHU216WMR968SP,2013-01-25 07:14:00,
2013-01-25 01:19:00,42.3,11.3,29.83,NE,51,2.2,4.9,28,0.00,,,0.00,WUHU216WMR968SP,2013-01-25 07:19:00,
2013-01-25 01:24:00,42.3,12.1,29.83,ESE,104,2.2,4.9,29,0.00,,,0.00,WUHU216WMR968SP,2013-01-25 07:24:00,
2013-01-25 01:29:00,42.1,11.9,29.80,South,170,3.5,6.3,29,0.00,,,0.00,WUHU216WMR968SP,2013-01-25 07:29:00,
2013-01-25 01:34:00,42.3,12.1,29.80,SSE,165,2.2,6.3,29,0.00,,,0.00,WUHU216WMR968SP,2013-01-25 07:34:00,
2013-01-25 01:39:00,42.1,11.9,29.80,South,169,4.0,4.9,29,0.00,,,0.00,WUHU216WMR968SP,2013-01-25 07:39:00,
2013-01-25 01:44:00,42.1,11.9,29.80,SE,130,3.3,6.7,29,0.00,,,0.00,WUHU216WMR968SP,2013-01-25 07:44:00,
2013-01-25 01:49:00,42.1,11.9,29.80,SSE,163,5.4,7.2,29,0.00,,,0.00,WUHU216WMR968SP,2013-01-25 07:49:00,
2013-01-25 01:54:00,42.1,11.9,29.80,South,178,4.9,7.2,29,0.00,,,0.00,WUHU216WMR968SP,2013-01-25 07:54:00,
2013-01-25 01:59:00,42.3,12.1,29.77,SE,143,4.4,8.1,29,0.00,,,0.00,WUHU216WMR968SP,2013-01-25 07:59:00,
2013-01-25 02:04:00,42.1,11.9,29.77,SSE,166,5.0,8.1,29,0.00,,,0.00,WUHU216WMR968SP,2013-01-25 08:04:00,
2013-01-25 02:09:00,42.3,12.1,29.77,SSE,168,6.3,8.7,29,0.00,,,0.00,WUHU216WMR968SP,2013-01-25 08:09:00,
2013-01-25 02:14:00,42.1,11.9,29.77,South,176,5.1,8.7,29,0.00,,,0.00,WUHU216WMR968SP,2013-01-25 08:14:00,
2013-01-25 02:19:00,42.1,11.9,29.77,South,177,5.1,8.3,29,0.00,,,0.00,WUHU216WMR968SP,2013-01-25 08:19:00,
2013-01-25 02:24:00,42.1,11.9,29.77,South,170,3.6,8.3,29,0.00,,,0.00,WUHU216WMR968SP,2013-01-25 08:24:00,
2013-01-25 02:29:00,42.3,12.1,29.77,SE,136,3.6,6.3,29,0.00,,,0.00,WUHU216WMR968SP,2013-01-25 08:29:00,
2013-01-25 02:34:00,42.3,12.1,29.77,South,184,3.6,6.7,29,0.00,,,0.00,WUHU216WMR968SP,2013-01-25 08:34:00,
2013-01-25 02:39:00,42.4,12.2,29.77,South,183,3.1,6.7,29,0.00,,,0.00,WUHU216WMR968SP,2013-01-25 08:39:00,
2013-01-25 02:44:00,42.4,12.2,29.74,SSE,166,3.6,4.9,29,0.00,,,0.00,WUHU216WMR968SP,2013-01-25 08:44:00,
2013-01-25 02:49:00,42.6,13.1,29.74,South,188,3.6,4.9,30,0.00,,,0.00,WUHU216WMR968SP,2013-01-25 08:49:00,
2013-01-25 02:54:00,42.8,12.5,29.74,SSE,164,3.1,4.9,29,0.00,,,0.00,WUHU216WMR968SP,2013-01-25 08:54:00,
2013-01-25 02:59:00,42.8,12.5,29.74,SSE,164,2.4,4.9,29,0.00,,,0.00,WUHU216WMR968SP,2013-01-25 08:59:00,
2013-01-25 03:04:00,43.0,12.7,29.74,South,183,2.7,5.8,29,0.00,,,0.00,WUHU216WMR968SP,2013-01-25 09:04:00,
2013-01-25 03:09:00,43.0,12.7,29.74,SE,127,2.6,6.3,29,0.00,,,0.00,WUHU216WMR968SP,2013-01-25 09:09:00,
2013-01-25 03:14:00,43.2,12.8,29.74,South,169,3.1,6.3,29,0.00,,,0.00,WUHU216WMR968SP,2013-01-25 09:14:00,
2013-01-25 03:19:00,43.3,13.7,29.74,SE,138,2.4,6.3,30,0.00,,,0.00,WUHU216WMR968SP,2013-01-25 09:19:00,
2013-01-25 03:24:00,43.5,13.9,29.74,SSE,156,3.1,4.0,30,0.00,,,0.00,WUHU216WMR968SP,2013-01-25 09:24:00,
2013-01-25 03:29:00,43.5,13.9,29.74,South,172,3.6,5.8,30,0.00,,,0.00,WUHU216WMR968SP,2013-01-25 09:29:00,
2013-01-25 03:34:00,43.7,14.0,29.74,SSE,160,2.2,5.8,30,0.00,,,0.00,WUHU216WMR968SP,2013-01-25 09:34:00,
2013-01-25 03:40:00,43.7,14.0,29.74,SSE,154,3.1,5.8,30,0.00,,,0.00,WUHU216WMR968SP,2013-01-25 09:40:00,
2013-01-25 03:45:00,43.9,14.2,29.71,SSE,155,4.0,5.8,30,0.00,,,0.00,WUHU216WMR968SP,2013-01-25 09:45:00,
2013-01-25 03:50:00,44.1,15.1,29.71,SSE,158,3.0,6.3,31,0.00,,,0.00,WUHU216WMR968SP,2013-01-25 09:50:00,
2013-01-25 03:55:00,44.1,15.1,29.71,SSE,168,3.8,6.3,31,0.00,,,0.00,WUHU216WMR968SP,2013-01-25 09:55:00,
2013-01-25 04:00:00,44.1,15.1,29.71,SSE,148,2.7,5.8,31,0.00,,,0.00,WUHU216WMR968SP,2013-01-25 10:00:00,
2013-01-25 04:05:00,44.2,15.2,29.71,South,172,3.6,6.3,31,0.00,,,0.00,WUHU216WMR968SP,2013-01-25 10:05:00,
2013-01-25 04:10:00,44.4,15.4,29.71,ESE,116,2.7,6.3,31,0.00,,,0.00,WUHU216WMR968SP,2013-01-25 10:10:00,
2013-01-25 04:15:00,44.6,15.6,29.71,SE,144,2.5,4.9,31,0.00,,,0.00,WUHU216WMR968SP,2013-01-25 10:15:00,
2013-01-25 04:20:00,44.8,16.5,29.71,ESE,105,0.0,4.0,32,0.00,,,0.00,WUHU216WMR968SP,2013-01-25 10:20:00,
2013-01-25 04:25:00,45.0,16.7,29.71,South,175,0.0,2.2,32,0.00,,,0.00,WUHU216WMR968SP,2013-01-25 10:25:00,
2013-01-25 04:30:00,45.1,17.5,29.71,South,173,0.0,0.0,33,0.00,,,0.00,WUHU216WMR968SP,2013-01-25 10:30:00,
2013-01-25 04:35:00,45.3,18.3,29.71,South,180,0.0,0.0,34,0.00,,,0.00,WUHU216WMR968SP,2013-01-25 10:35:00,
2013-01-25 04:40:00,45.3,19.0,29.71,SSW,207,0.0,3.6,35,0.00,,,0.00,WUHU216WMR968SP,2013-01-25 10:40:00,
2013-01-25 04:45:00,45.5,19.8,29.71,SSE,155,3.6,5.4,36,0.00,,,0.00,WUHU216WMR968SP,2013-01-25 10:45:00,
2013-01-25 04:50:00,45.7,20.7,29.71,South,172,3.3,6.3,37,0.00,,,0.00,WUHU216WMR968SP,2013-01-25 10:50:00,
2013-01-25 04:55:00,45.9,20.9,29.71,South,171,3.4,6.3,37,0.00,,,0.00,WUHU216WMR968SP,2013-01-25 10:55:00,
2013-01-25 05:00:00,46.0,21.6,29.71,South,184,2.7,5.4,38,0.00,,,0.00,WUHU216WMR968SP,2013-01-25 11:00:00,
2013-01-25 05:05:00,46.0,21.6,29.71,South,177,2.8,4.9,38,0.00,,,0.00,WUHU216WMR968SP,2013-01-25 11:05:00,
2013-01-25 05:10:00,46.2,21.8,29.71,South,186,3.1,4.9,38,0.00,,,0.00,WUHU216WMR968SP,2013-01-25 11:10:00,
2013-01-25 05:15:00,46.2,21.8,29.71,SSE,153,3.6,6.3,38,0.00,,,0.00,WUHU216WMR968SP,2013-01-25 11:15:00,
2013-01-25 05:20:00,46.2,21.8,29.71,South,179,3.8,6.3,38,0.00,,,0.00,WUHU216WMR968SP,2013-01-25 11:20:00,
2013-01-25 05:25:00,46.4,21.9,29.71,South,170,4.5,6.3,38,0.00,,,0.00,WUHU216WMR968SP,2013-01-25 11:25:00,
2013-01-25 05:30:00,46.4,21.9,29.71,South,170,5.0,6.3,38,0.00,,,0.00,WUHU216WMR968SP,2013-01-25 11:30:00,
2013-01-25 05:35:00,46.4,21.9,29.71,South,184,4.9,7.6,38,0.00,,,0.00,WUHU216WMR968SP,2013-01-25 11:35:00,
2013-01-25 05:40:00,46.4,21.9,29.71,South,179,5.8,7.6,38,0.00,,,0.00,WUHU216WMR968SP,2013-01-25 11:40:00,
2013-01-25 05:45:00,46.6,22.8,29.68,South,174,6.1,8.3,39,0.00,,,0.00,WUHU216WMR968SP,2013-01-25 11:45:00,
2013-01-25 05:50:00,46.8,23.5,29.68,South,172,5.0,8.3,40,0.00,,,0.00,WUHU216WMR968SP,2013-01-25 11:50:00,
2013-01-25 05:56:00,46.9,23.6,29.68,South,179,6.4,10.5,40,0.00,,,0.00,WUHU216WMR968SP,2013-01-25 11:56:00,
2013-01-25 06:01:00,47.1,24.4,29.68,South,181,5.8,10.5,41,0.00,,,0.00,WUHU216WMR968SP,2013-01-25 12:01:00,
2013-01-25 06:06:00,47.3,25.8,29.68,South,185,6.4,10.1,43,0.00,,,0.00,WUHU216WMR968SP,2013-01-25 12:06:00,
2013-01-25 06:11:00,47.7,26.1,29.68,South,190,6.7,10.1,43,0.00,,,0.00,WUHU216WMR968SP,2013-01-25 12:11:00,
2013-01-25 06:16:00,47.8,27.9,29.68,South,191,7.2,10.1,46,0.00,,,0.00,WUHU216WMR968SP,2013-01-25 12:16:00,
2013-01-25 06:21:00,48.2,29.4,29.68,South,182,7.4,11.0,48,0.00,,,0.00,WUHU216WMR968SP,2013-01-25 12:21:00,
2013-01-25 06:26:00,48.6,30.2,29.68,South,171,6.4,11.0,49,0.00,,,0.00,WUHU216WMR968SP,2013-01-25 12:26:00,
2013-01-25 06:31:00,48.9,31.0,29.68,South,176,5.1,10.1,50,0.00,,,0.00,WUHU216WMR968SP,2013-01-25 12:31:00,
2013-01-25 06:36:00,49.3,33.8,29.68,South,184,7.2,10.5,52,0.00,,,0.00,WUHU216WMR968SP,2013-01-25 12:36:00,
2013-01-25 06:41:00,49.5,33.8,29.68,South,171,6.1,10.5,53,0.00,,,0.00,WUHU216WMR968SP,2013-01-25 12:41:00,
2013-01-25 06:46:00,49.5,33.8,29.68,South,189,5.4,10.5,52,0.00,,,0.00,WUHU216WMR968SP,2013-01-25 12:46:00,
2013-01-25 06:51:00,49.6,33.8,29.68,South,175,5.3,8.3,52,0.00,,,0.00,WUHU216WMR968SP,2013-01-25 12:51:00,
2013-01-25 06:56:00,49.6,33.8,29.68,SSW,204,5.8,8.3,52,0.00,,,0.00,WUHU216WMR968SP,2013-01-25 12:56:00,
2013-01-25 07:01:00,49.6,32.0,29.68,South,190,5.4,7.6,51,0.00,,,0.00,WUHU216WMR968SP,2013-01-25 13:01:00,
2013-01-25 07:06:00,49.6,32.0,29.68,SSW,194,4.0,8.3,51,0.00,,,0.00,WUHU216WMR968SP,2013-01-25 13:06:00,
2013-01-25 07:11:00,49.6,32.0,29.68,South,177,4.9,8.3,51,0.00,,,0.00,WUHU216WMR968SP,2013-01-25 13:11:00,
2013-01-25 07:16:00,49.6,32.0,29.68,South,187,5.9,8.1,51,0.00,,,0.00,WUHU216WMR968SP,2013-01-25 13:16:00,
2013-01-25 07:21:00,49.6,33.8,29.68,SSW,201,2.9,7.2,52,0.00,,,0.00,WUHU216WMR968SP,2013-01-25 13:21:00,
2013-01-25 07:26:00,49.6,33.8,29.68,WSW,252,0.0,5.8,52,0.00,,,0.00,WUHU216WMR968SP,2013-01-25 13:26:00,
2013-01-25 07:31:00,48.7,33.8,29.71,West,259,0.0,3.1,58,0.00,,,0.00,WUHU216WMR968SP,2013-01-25 13:31:00,
2013-01-25 07:36:00,48.2,35.6,29.71,West,259,0.0,0.0,63,0.00,,,0.00,WUHU216WMR968SP,2013-01-25 13:36:00,
2013-01-25 07:41:00,48.0,39.2,29.71,WNW,292,0.0,3.6,69,0.00,,,0.00,WUHU216WMR968SP,2013-01-25 13:41:00,
2013-01-25 07:46:00,48.0,39.2,29.71,WNW,294,2.2,4.9,72,0.00,,,0.00,WUHU216WMR968SP,2013-01-25 13:46:00,
2013-01-25 07:51:00,48.2,39.2,29.71,WSW,252,0.0,4.9,73,0.00,,,0.00,WUHU216WMR968SP,2013-01-25 13:51:00,
2013-01-25 07:56:00,48.0,41.0,29.71,SW,215,0.0,4.0,75,0.00,,,0.00,WUHU216WMR968SP,2013-01-25 13:56:00,
2013-01-25 08:01:00,48.0,41.0,29.74,SSW,202,2.2,3.6,76,0.00,,,0.00,WUHU216WMR968SP,2013-01-25 14:01:00,
2013-01-25 08:06:00,48.2,41.0,29.74,SSW,204,3.6,6.3,76,0.00,,,0.00,WUHU216WMR968SP,2013-01-25 14:06:00,
2013-01-25 08:11:00,48.4,41.0,29.74,SSW,207,3.5,6.3,76,0.00,,,0.00,WUHU216WMR968SP,2013-01-25 14:11:00,
2013-01-25 08:16:00,48.7,41.0,29.71,SW,215,2.2,5.4,78,0.00,,,0.00,WUHU216WMR968SP,2013-01-25 14:16:00,
2013-01-25 08:21:00,48.9,42.8,29.71,WSW,253,2.2,5.4,82,0.00,,,0.00,WUHU216WMR968SP,2013-01-25 14:21:00,
2013-01-25 08:26:00,49.3,44.6,29.71,SSW,194,2.2,4.9,84,0.00,,,0.00,WUHU216WMR968SP,2013-01-25 14:26:00,
2013-01-25 08:31:00,49.5,46.4,29.71,SW,234,0.0,4.5,86,0.00,,,0.00,WUHU216WMR968SP,2013-01-25 14:31:00,
2013-01-25 08:36:00,49.3,46.4,29.71,West,270,2.2,5.4,87,0.00,,,0.00,WUHU216WMR968SP,2013-01-25 14:36:00,
2013-01-25 08:41:00,47.8,44.6,29.71,NW,320,5.8,8.7,87,0.00,,,0.00,WUHU216WMR968SP,2013-01-25 14:41:00,
2013-01-25 08:46:00,41.5,33.8,29.74,NW,313,5.1,8.7,75,0.00,,,0.00,WUHU216WMR968SP,2013-01-25 14:46:00,
2013-01-25 08:51:00,39.9,32.0,29.74,NW,314,4.4,11.0,78,0.00,,,0.00,WUHU216WMR968SP,2013-01-25 14:51:00,
2013-01-25 08:56:00,39.4,33.8,29.74,NW,318,4.0,11.0,81,0.00,,,0.00,WUHU216WMR968SP,2013-01-25 14:56:00,
2013-01-25 09:01:00,39.2,35.6,29.74,NNW,328,3.5,7.6,84,0.00,,,0.00,WUHU216WMR968SP,2013-01-25 15:01:00,
2013-01-25 09:06:00,39.2,35.6,29.74,NW,317,2.9,4.9,85,0.00,,,0.00,WUHU216WMR968SP,2013-01-25 15:06:00,
2013-01-25 09:11:00,39.2,35.6,29.74,NNW,345,4.0,8.7,86,0.00,,,0.00,WUHU216WMR968SP,2013-01-25 15:11:00,
2013-01-25 09:16:00,38.3,35.6,29.77,NNW,333,6.3,8.7,87,0.00,,,0.00,WUHU216WMR968SP,2013-01-25 15:16:00,
2013-01-25 09:21:00,37.9,33.8,29.77,NW,315,4.6,8.7,87,0.00,,,0.00,WUHU216WMR968SP,2013-01-25 15:21:00,
2013-01-25 09:26:00,37.9,33.8,29.77,NW,312,3.6,8.1,87,0.00,,,0.00,WUHU216WMR968SP,2013-01-25 15:26:00,
2013-01-25 09:31:00,37.9,33.8,29.77,NNW,336,3.7,5.8,88,0.00,,,0.00,WUHU216WMR968SP,2013-01-25 15:31:00,
2013-01-25 09:36:00,37.9,33.8,29.77,NNW,330,3.4,5.8,88,0.00,,,0.00,WUHU216WMR968SP,2013-01-25 15:36:00,
2013-01-25 09:41:00,38.1,33.8,29.77,NW,324,4.5,6.3,88,0.00,,,0.00,WUHU216WMR968SP,2013-01-25 15:41:00,
2013-01-25 09:46:00,37.9,33.8,29.80,North,350,4.0,7.6,89,0.00,,,0.00,WUHU216WMR968SP,2013-01-25 15:46:00,
2013-01-25 09:51:00,37.4,33.8,29.80,NNW,327,4.0,7.6,89,0.00,,,0.00,WUHU216WMR968SP,2013-01-25 15:51:00,
2013-01-25 09:56:00,36.5,33.8,29.80,NW,326,5.8,8.1,89,0.00,,,0.00,WUHU216WMR968SP,2013-01-25 15:56:00,
2013-01-25 10:01:00,36.3,32.0,29.80,NNW,327,4.0,8.1,88,0.00,,,0.00,WUHU216WMR968SP,2013-01-25 16:01:00,
2013-01-25 10:06:00,36.3,32.0,29.80,North,349,4.2,7.6,89,0.00,,,0.00,WUHU216WMR968SP,2013-01-25 16:06:00,
2013-01-25 10:11:00,36.0,32.0,29.80,North,352,6.7,10.1,88,0.00,,,0.00,WUHU216WMR968SP,2013-01-25 16:11:00,
2013-01-25 10:16:00,35.6,32.0,29.80,WSW,255,2.2,10.1,88,0.00,,,0.00,WUHU216WMR968SP,2013-01-25 16:16:00,
2013-01-25 10:21:00,35.4,32.0,29.80,North,353,2.7,8.3,88,0.00,,,0.00,WUHU216WMR968SP,2013-01-25 16:21:00,
2013-01-25 10:26:00,35.4,32.0,29.80,North,10,2.7,4.0,88,0.00,,,0.00,WUHU216WMR968SP,2013-01-25 16:26:00,
2013-01-25 10:31:00,35.6,32.0,29.80,NNE,32,0.0,4.0,88,0.00,,,0.00,WUHU216WMR968SP,2013-01-25 16:31:00,
2013-01-25 10:36:00,35.8,32.0,29.80,East,84,0.0,3.6,88,0.00,,,0.00,WUHU216WMR968SP,2013-01-25 16:36:00,
2013-01-25 10:41:00,36.0,32.0,29.80,East,81,0.0,2.2,88,0.00,,,0.00,WUHU216WMR968SP,2013-01-25 16:41:00,
2013-01-25 10:46:00,36.1,32.0,29.80,NNW,342,0.0,0.0,88,0.00,,,0.00,WUHU216WMR968SP,2013-01-25 16:46:00,
2013-01-25 10:51:00,36.1,32.0,29.80,NNW,342,0.0,0.0,88,0.00,,,0.00,WUHU216WMR968SP,2013-01-25 16:51:00,
2013-01-25 10:56:00,36.1,32.0,29.80,NNW,342,0.0,0.0,89,0.00,,,0.00,WUHU216WMR968SP,2013-01-25 16:56:00,
2013-01-25 11:01:00,36.1,32.0,29.80,NNW,342,0.0,0.0,89,0.00,,,0.00,WUHU216WMR968SP,2013-01-25 17:01:00,
2013-01-25 11:06:00,36.3,32.0,29.80,NNW,342,2.2,2.7,89,0.00,,,0.00,WUHU216WMR968SP,2013-01-25 17:06:00,
2013-01-25 11:11:00,36.3,32.0,29.80,NNW,342,0.0,2.7,89,0.00,,,0.00,WUHU216WMR968SP,2013-01-25 17:11:00,
2013-01-25 11:16:00,36.5,33.8,29.80,NNW,342,2.2,2.7,89,0.00,,,0.00,WUHU216WMR968SP,2013-01-25 17:16:00,
2013-01-25 11:22:00,36.7,33.8,29.80,NNW,341,0.0,2.7,89,0.00,,,0.00,WUHU216WMR968SP,2013-01-25 17:22:00,
2013-01-25 11:27:00,36.9,33.8,29.80,NNW,341,0.0,0.0,89,0.00,,,0.00,WUHU216WMR968SP,2013-01-25 17:27:00,
2013-01-25 11:32:00,37.0,33.8,29.80,NNW,341,0.0,0.0,89,0.00,,,0.00,WUHU216WMR968SP,2013-01-25 17:32:00,
2013-01-25 11:37:00,37.4,33.8,29.80,NNW,341,0.0,0.0,89,0.00,,,0.00,WUHU216WMR968SP,2013-01-25 17:37:00,
2013-01-25 11:42:00,37.4,33.8,29.80,NNW,342,2.7,3.6,89,0.00,,,0.00,WUHU216WMR968SP,2013-01-25 17:42:00,
2013-01-25 11:47:00,37.8,33.8,29.80,NW,321,0.0,4.5,89,0.00,,,0.00,WUHU216WMR968SP,2013-01-25 17:47:00,
2013-01-25 11:52:00,37.6,33.8,29.80,NW,324,2.7,4.5,89,0.00,,,0.00,WUHU216WMR968SP,2013-01-25 17:52:00,
2013-01-25 11:57:00,37.6,33.8,29.77,North,4,4.5,6.3,89,0.00,,,0.00,WUHU216WMR968SP,2013-01-25 17:57:00,
2013-01-25 12:02:00,37.8,33.8,29.77,NNW,330,0.0,6.3,89,0.00,,,0.00,WUHU216WMR968SP,2013-01-25 18:02:00,
2013-01-25 12:07:00,37.6,35.6,29.77,North,353,3.1,5.4,90,0.00,,,0.00,WUHU216WMR968SP,2013-01-25 18:07:00,
2013-01-25 12:12:00,37.6,35.6,29.77,NNW,335,3.1,5.4,90,0.00,,,0.00,WUHU216WMR968SP,2013-01-25 18:12:00,
2013-01-25 12:17:00,37.8,35.6,29.77,NW,305,2.2,4.0,90,0.00,,,0.00,WUHU216WMR968SP,2013-01-25 18:17:00,
2013-01-25 12:22:00,37.6,35.6,29.77,NW,325,2.7,5.4,90,0.00,,,0.00,WUHU216WMR968SP,2013-01-25 18:22:00,
2013-01-25 12:27:00,37.4,35.6,29.77,WNW,288,2.9,6.3,90,0.00,,,0.00,WUHU216WMR968SP,2013-01-25 18:27:00,
2013-01-25 12:32:00,37.6,35.6,29.77,NNW,330,2.2,6.3,90,0.00,,,0.00,WUHU216WMR968SP,2013-01-25 18:32:00,
2013-01-25 12:37:00,37.6,35.6,29.77,NNW,341,2.2,4.0,90,0.00,,,0.00,WUHU216WMR968SP,2013-01-25 18:37:00,
2013-01-25 12:42:00,37.6,35.6,29.77,NW,324,0.0,3.6,90,0.00,,,0.00,WUHU216WMR968SP,2013-01-25 18:42:00,
2013-01-25 12:47:00,37.8,35.6,29.77,North,0,2.7,3.6,90,0.00,,,0.00,WUHU216WMR968SP,2013-01-25 18:47:00,
2013-01-25 12:52:00,37.9,35.6,29.77,NNW,346,2.4,4.0,90,0.00,,,0.00,WUHU216WMR968SP,2013-01-25 18:52:00,
2013-01-25 12:57:00,38.5,37.4,29.74,NNW,330,0.0,4.0,90,0.00,,,0.00,WUHU216WMR968SP,2013-01-25 18:57:00,
2013-01-25 13:02:00,38.7,37.4,29.74,North,2,2.7,4.5,90,0.00,,,0.00,WUHU216WMR968SP,2013-01-25 19:02:00,
2013-01-25 13:07:00,39.2,35.6,29.74,North,353,3.6,4.9,89,0.00,,,0.00,WUHU216WMR968SP,2013-01-25 19:07:00,
2013-01-25 13:13:00,39.4,35.6,29.77,North,355,3.3,4.9,89,0.00,,,0.00,WUHU216WMR968SP,2013-01-25 19:13:00,
2013-01-25 13:18:00,39.7,35.6,29.77,NW,305,3.6,4.9,89,0.00,,,0.00,WUHU216WMR968SP,2013-01-25 19:18:00,
2013-01-25 13:23:00,39.9,35.6,29.77,NNW,335,0.0,4.0,89,0.00,,,0.00,WUHU216WMR968SP,2013-01-25 19:23:00,
2013-01-25 13:28:00,40.5,37.4,29.77,NNW,347,2.2,4.0,88,0.00,,,0.00,WUHU216WMR968SP,2013-01-25 19:28:00,
2013-01-25 13:33:00,39.9,35.6,29.77,NNW,337,2.2,5.4,87,0.00,,,0.00,WUHU216WMR968SP,2013-01-25 19:33:00,
2013-01-25 13:38:00,40.3,37.4,29.77,NNW,333,2.4,5.4,84,0.00,,,0.00,WUHU216WMR968SP,2013-01-25 19:38:00,
2013-01-25 13:43:00,40.3,35.6,29.74,NNW,332,2.7,6.3,83,0.00,,,0.00,WUHU216WMR968SP,2013-01-25 19:43:00,
2013-01-25 13:48:00,40.5,35.6,29.74,NNE,22,3.1,6.3,82,0.00,,,0.00,WUHU216WMR968SP,2013-01-25 19:48:00,
2013-01-25 13:53:00,40.6,35.6,29.74,NNW,337,0.0,4.9,82,0.00,,,0.00,WUHU216WMR968SP,2013-01-25 19:53:00,
2013-01-25 13:58:00,40.8,35.6,29.74,NW,316,4.1,6.3,82,0.00,,,0.00,WUHU216WMR968SP,2013-01-25 19:58:00,
2013-01-25 14:03:00,40.8,35.6,29.74,NNE,33,4.9,7.6,80,0.00,,,0.00,WUHU216WMR968SP,2013-01-25 20:03:00,
2013-01-25 14:08:00,41.0,35.6,29.74,NW,323,4.5,8.1,79,0.00,,,0.00,WUHU216WMR968SP,2013-01-25 20:08:00,
2013-01-25 14:13:00,41.4,33.8,29.74,NNW,342,3.1,8.1,78,0.00,,,0.00,WUHU216WMR968SP,2013-01-25 20:13:00,
2013-01-25 14:18:00,41.5,33.8,29.74,NW,324,0.0,4.5,77,0.00,,,0.00,WUHU216WMR968SP,2013-01-25 20:18:00,
2013-01-25 14:23:00,41.7,33.8,29.74,NW,326,2.7,5.4,75,0.00,,,0.00,WUHU216WMR968SP,2013-01-25 20:23:00,
2013-01-25 14:28:00,42.1,35.6,29.77,North,0,3.1,5.4,74,0.00,,,0.00,WUHU216WMR968SP,2013-01-25 20:28:00,
2013-01-25 14:33:00,42.3,35.6,29.77,NNE,14,2.2,5.4,74,0.00,,,0.00,WUHU216WMR968SP,2013-01-25 20:33:00,
2013-01-25 14:38:00,42.4,35.6,29.77,North,11,2.2,5.4,73,0.00,,,0.00,WUHU216WMR968SP,2013-01-25 20:38:00,
2013-01-25 14:43:00,42.3,33.8,29.77,NNW,329,0.0,4.9,71,0.00,,,0.00,WUHU216WMR968SP,2013-01-25 20:43:00,
2013-01-25 14:48:00,42.1,33.8,29.77,NNW,334,0.0,4.0,70,0.00,,,0.00,WUHU216WMR968SP,2013-01-25 20:48:00,
2013-01-25 14:53:00,42.1,33.8,29.77,North,6,0.0,4.0,70,0.00,,,0.00,WUHU216WMR968SP,2013-01-25 20:53:00,
2013-01-25 14:58:00,42.3,33.8,29.77,North,0,0.0,2.7,70,0.00,,,0.00,WUHU216WMR968SP,2013-01-25 20:58:00,
2013-01-25 15:03:00,42.3,33.8,29.77,North,6,3.6,5.8,68,0.00,,,0.00,WUHU216WMR968SP,2013-01-25 21:03:00,
2013-01-25 15:08:00,42.4,32.0,29.77,West,277,0.0,5.8,67,0.00,,,0.00,WUHU216WMR968SP,2013-01-25 21:08:00,
2013-01-25 15:13:00,42.8,32.0,29.77,NNW,346,2.7,5.8,66,0.00,,,0.00,WUHU216WMR968SP,2013-01-25 21:13:00,
2013-01-25 15:18:00,43.0,32.0,29.77,North,350,2.2,4.5,66,0.00,,,0.00,WUHU216WMR968SP,2013-01-25 21:18:00,
2013-01-25 15:23:00,43.0,32.0,29.77,NNW,342,2.7,5.4,65,0.00,,,0.00,WUHU216WMR968SP,2013-01-25 21:23:00,
2013-01-25 15:28:00,43.0,32.0,29.77,North,8,3.6,5.8,65,0.00,,,0.00,WUHU216WMR968SP,2013-01-25 21:28:00,
2013-01-25 15:33:00,42.4,32.0,29.77,North,9,3.3,6.3,64,0.00,,,0.00,WUHU216WMR968SP,2013-01-25 21:33:00,
2013-01-25 15:39:00,41.9,32.0,29.77,North,3,3.4,7.6,63,0.00,,,0.00,WUHU216WMR968SP,2013-01-25 21:39:00,
2013-01-25 15:44:00,41.7,30.9,29.77,NNW,346,2.7,7.6,65,0.00,,,0.00,WUHU216WMR968SP,2013-01-25 21:44:00,
2013-01-25 15:49:00,41.2,30.4,29.77,NNW,343,3.1,6.3,65,0.00,,,0.00,WUHU216WMR968SP,2013-01-25 21:49:00,
2013-01-25 15:54:00,41.0,31.0,29.77,NW,319,3.6,4.5,67,0.00,,,0.00,WUHU216WMR968SP,2013-01-25 21:54:00,
2013-01-25 15:59:00,40.6,32.0,29.77,NNW,334,3.1,4.9,68,0.00,,,0.00,WUHU216WMR968SP,2013-01-25 21:59:00,
2013-01-25 16:04:00,40.6,32.0,29.77,NNW,335,4.0,6.3,69,0.00,,,0.00,WUHU216WMR968SP,2013-01-25 22:04:00,
2013-01-25 16:09:00,40.6,32.0,29.77,NNW,347,2.7,6.3,69,0.00,,,0.00,WUHU216WMR968SP,2013-01-25 22:09:00,
2013-01-25 16:14:00,40.5,32.0,29.77,North,10,4.3,8.1,69,0.00,,,0.00,WUHU216WMR968SP,2013-01-25 22:14:00,
2013-01-25 16:19:00,40.3,32.0,29.77,NNE,12,2.7,8.1,69,0.00,,,0.00,WUHU216WMR968SP,2013-01-25 22:19:00,
2013-01-25 16:24:00,40.1,32.0,29.77,NNE,17,3.6,8.1,69,0.00,,,0.00,WUHU216WMR968SP,2013-01-25 22:24:00,
2013-01-25 16:29:00,39.9,30.6,29.77,North,1,3.8,8.1,69,0.00,,,0.00,WUHU216WMR968SP,2013-01-25 22:29:00,
2013-01-25 16:34:00,39.9,30.6,29.77,NNW,344,3.2,8.1,69,0.00,,,0.00,WUHU216WMR968SP,2013-01-25 22:34:00,
2013-01-25 16:39:00,39.7,30.4,29.77,NW,316,3.6,5.8,69,0.00,,,0.00,WUHU216WMR968SP,2013-01-25 22:39:00,
2013-01-25 16:44:00,39.7,30.8,29.77,North,0,0.0,4.9,70,0.00,,,0.00,WUHU216WMR968SP,2013-01-25 22:44:00,
2013-01-25 16:49:00,39.7,31.1,29.77,NE,50,0.0,3.6,71,0.00,,,0.00,WUHU216WMR968SP,2013-01-25 22:49:00,
2013-01-25 16:54:00,39.7,31.1,29.77,North,353,0.0,3.1,71,0.00,,,0.00,WUHU216WMR968SP,2013-01-25 22:54:00,
2013-01-25 16:59:00,39.7,31.1,29.77,NNE,18,2.2,3.6,71,0.00,,,0.00,WUHU216WMR968SP,2013-01-25 22:59:00,
2013-01-25 17:04:00,39.4,30.9,29.77,North,349,0.0,4.0,71,0.00,,,0.00,WUHU216WMR968SP,2013-01-25 23:04:00,
2013-01-25 17:09:00,39.4,30.9,29.77,North,7,0.0,4.0,71,0.00,,,0.00,WUHU216WMR968SP,2013-01-25 23:09:00,
2013-01-25 17:14:00,39.2,30.7,29.80,NNE,18,0.0,2.2,71,0.00,,,0.00,WUHU216WMR968SP,2013-01-25 23:14:00,
2013-01-25 17:19:00,39.2,30.7,29.80,North,357,4.0,5.4,71,0.00,,,0.00,WUHU216WMR968SP,2013-01-25 23:19:00,
2013-01-25 17:24:00,38.8,30.6,29.80,NNW,346,3.0,5.4,72,0.00,,,0.00,WUHU216WMR968SP,2013-01-25 23:24:00,
2013-01-25 17:29:00,38.8,30.6,29.80,North,8,0.0,4.9,72,0.00,,,0.00,WUHU216WMR968SP,2013-01-25 23:29:00,
2013-01-25 17:34:00,38.7,30.5,29.80,NNE,14,2.2,4.9,72,0.00,,,0.00,WUHU216WMR968SP,2013-01-25 23:34:00,
2013-01-25 17:39:00,38.7,30.5,29.80,North,351,2.2,3.6,72,0.00,,,0.00,WUHU216WMR968SP,2013-01-25 23:39:00,
2013-01-25 17:44:00,38.7,30.5,29.80,NE,52,0.0,3.6,72,0.00,,,0.00,WUHU216WMR968SP,2013-01-25 23:44:00,
2013-01-25 17:49:00,38.7,30.5,29.80,NNE,16,0.0,3.1,72,0.00,,,0.00,WUHU216WMR968SP,2013-01-25 23:49:00,
2013-01-25 17:54:00,38.7,30.5,29.80,North,9,0.0,4.0,72,0.00,,,0.00,WUHU216WMR968SP,2013-01-25 23:54:00,
2013-01-25 17:59:00,38.7,30.5,29.80,NNE,20,3.1,5.4,72,0.00,,,0.00,WUHU216WMR968SP,2013-01-25 23:59:00,
2013-01-25 18:04:00,38.7,30.5,29.80,NNW,341,2.2,5.4,72,0.00,,,0.00,WUHU216WMR968SP,2013-01-26 00:04:00,
2013-01-25 18:09:00,38.7,30.5,29.80,NNE,21,2.2,4.0,72,0.00,,,0.00,WUHU216WMR968SP,2013-01-26 00:09:00,
2013-01-25 18:14:00,38.7,30.5,29.80,North,357,0.0,3.1,72,0.00,,,0.00,WUHU216WMR968SP,2013-01-26 00:14:00,
2013-01-25 18:19:00,38.7,30.5,29.80,North,10,0.0,0.0,72,0.00,,,0.00,WUHU216WMR968SP,2013-01-26 00:19:00,
2013-01-25 18:24:00,38.7,30.5,29.80,North,357,0.0,3.1,72,0.00,,,0.00,WUHU216WMR968SP,2013-01-26 00:24:00,
2013-01-25 18:29:00,38.5,30.3,29.83,NE,46,0.0,3.6,72,0.00,,,0.00,WUHU216WMR968SP,2013-01-26 00:29:00,
2013-01-25 18:34:00,38.5,30.3,29.83,NE,54,0.0,3.6,72,0.00,,,0.00,WUHU216WMR968SP,2013-01-26 00:34:00,
2013-01-25 18:39:00,38.5,30.3,29.83,NE,43,0.0,0.0,72,0.00,,,0.00,WUHU216WMR968SP,2013-01-26 00:39:00,
2013-01-25 18:44:00,38.5,30.3,29.83,North,357,0.0,0.0,72,0.00,,,0.00,WUHU216WMR968SP,2013-01-26 00:44:00,
2013-01-25 18:49:00,38.5,30.3,29.83,NNE,24,0.0,3.6,72,0.00,,,0.00,WUHU216WMR968SP,2013-01-26 00:49:00,
2013-01-25 18:54:00,38.3,30.1,29.83,NNE,19,0.0,3.6,72,0.00,,,0.00,WUHU216WMR968SP,2013-01-26 00:54:00,
2013-01-25 18:59:00,38.1,29.9,29.83,NE,54,0.0,0.0,72,0.00,,,0.00,WUHU216WMR968SP,2013-01-26 00:59:00,
2013-01-25 19:04:00,37.9,29.7,29.83,ENE,60,0.0,0.0,72,0.00,,,0.00,WUHU216WMR968SP,2013-01-26 01:04:00,
2013-01-25 19:09:00,37.6,29.5,29.83,NE,51,0.0,0.0,72,0.00,,,0.00,WUHU216WMR968SP,2013-01-26 01:09:00,
2013-01-25 19:14:00,37.4,29.3,29.83,NE,53,0.0,0.0,72,0.00,,,0.00,WUHU216WMR968SP,2013-01-26 01:14:00,
2013-01-25 19:19:00,37.0,29.2,29.83,NE,53,0.0,0.0,73,0.00,,,0.00,WUHU216WMR968SP,2013-01-26 01:19:00,
2013-01-25 19:24:00,36.9,29.1,29.83,NE,46,0.0,0.0,73,0.00,,,0.00,WUHU216WMR968SP,2013-01-26 01:24:00,
2013-01-25 19:29:00,36.7,28.9,29.83,NE,46,0.0,0.0,73,0.00,,,0.00,WUHU216WMR968SP,2013-01-26 01:29:00,
2013-01-25 19:34:00,36.5,28.7,29.83,NE,46,0.0,0.0,73,0.00,,,0.00,WUHU216WMR968SP,2013-01-26 01:34:00,
2013-01-25 19:39:00,36.3,28.5,29.83,NE,46,0.0,0.0,73,0.00,,,0.00,WUHU216WMR968SP,2013-01-26 01:39:00,
2013-01-25 19:44:00,36.3,28.5,29.83,NE,46,0.0,0.0,73,0.00,,,0.00,WUHU216WMR968SP,2013-01-26 01:44:00,
2013-01-25 19:49:00,36.0,28.2,29.83,NE,46,0.0,0.0,73,0.00,,,0.00,WUHU216WMR968SP,2013-01-26 01:49:00,
2013-01-25 19:54:00,36.0,28.6,29.83,NE,46,0.0,0.0,74,0.00,,,0.00,WUHU216WMR968SP,2013-01-26 01:54:00,
2013-01-25 19:59:00,35.8,28.7,29.83,NE,46,0.0,0.0,75,0.00,,,0.00,WUHU216WMR968SP,2013-01-26 01:59:00,
2013-01-25 20:04:00,35.6,28.8,29.83,NE,46,0.0,0.0,76,0.00,,,0.00,WUHU216WMR968SP,2013-01-26 02:04:00,
2013-01-25 20:09:00,35.4,28.9,29.83,NE,46,0.0,0.0,77,0.00,,,0.00,WUHU216WMR968SP,2013-01-26 02:09:00,
2013-01-25 20:14:00,35.1,28.6,29.83,NE,46,0.0,0.0,77,0.00,,,0.00,WUHU216WMR968SP,2013-01-26 02:14:00,
2013-01-25 20:19:00,34.9,28.5,29.83,NE,46,0.0,0.0,77,0.00,,,0.00,WUHU216WMR968SP,2013-01-26 02:19:00,
2013-01-25 20:24:00,34.9,28.5,29.83,NE,46,0.0,0.0,77,0.00,,,0.00,WUHU216WMR968SP,2013-01-26 02:24:00,
2013-01-25 20:29:00,34.7,28.3,29.83,NE,46,0.0,0.0,77,0.00,,,0.00,WUHU216WMR968SP,2013-01-26 02:29:00,
2013-01-25 20:35:00,34.5,28.1,29.83,NE,46,0.0,0.0,77,0.00,,,0.00,WUHU216WMR968SP,2013-01-26 02:35:00,
2013-01-25 20:40:00,34.3,27.9,29.83,NE,46,0.0,0.0,77,0.00,,,0.00,WUHU216WMR968SP,2013-01-26 02:40:00,
2013-01-25 20:45:00,34.2,28.1,29.83,NE,46,0.0,0.0,78,0.00,,,0.00,WUHU216WMR968SP,2013-01-26 02:45:00,
2013-01-25 20:50:00,34.0,27.9,29.83,NE,46,0.0,0.0,78,0.00,,,0.00,WUHU216WMR968SP,2013-01-26 02:50:00,
2013-01-25 20:55:00,34.0,27.9,29.83,NE,46,0.0,0.0,78,0.00,,,0.00,WUHU216WMR968SP,2013-01-26 02:55:00,
2013-01-25 21:00:00,33.8,27.7,29.83,NE,46,0.0,0.0,78,0.00,,,0.00,WUHU216WMR968SP,2013-01-26 03:00:00,
2013-01-25 21:05:00,33.8,27.7,29.83,NE,46,0.0,0.0,78,0.00,,,0.00,WUHU216WMR968SP,2013-01-26 03:05:00,
2013-01-25 21:10:00,33.6,27.8,29.83,NE,46,0.0,0.0,79,0.00,,,0.00,WUHU216WMR968SP,2013-01-26 03:10:00,
2013-01-25 21:15:00,33.6,27.8,29.83,NE,46,0.0,0.0,79,0.00,,,0.00,WUHU216WMR968SP,2013-01-26 03:15:00,
2013-01-25 21:20:00,33.6,27.8,29.83,NE,46,0.0,0.0,79,0.00,,,0.00,WUHU216WMR968SP,2013-01-26 03:20:00,
2013-01-25 21:25:00,33.6,27.8,29.83,NE,46,0.0,0.0,79,0.00,,,0.00,WUHU216WMR968SP,2013-01-26 03:25:00,
2013-01-25 21:30:00,33.4,27.6,29.83,NE,46,0.0,0.0,79,0.00,,,0.00,WUHU216WMR968SP,2013-01-26 03:30:00,
2013-01-25 21:35:00,33.3,27.5,29.83,NE,46,0.0,0.0,79,0.00,,,0.00,WUHU216WMR968SP,2013-01-26 03:35:00,
2013-01-25 21:40:00,33.4,27.6,29.83,NE,46,0.0,0.0,79,0.00,,,0.00,WUHU216WMR968SP,2013-01-26 03:40:00,
2013-01-25 21:45:00,33.6,28.1,29.83,NE,46,0.0,0.0,80,0.00,,,0.00,WUHU216WMR968SP,2013-01-26 03:45:00,
2013-01-25 21:50:00,33.6,28.4,29.83,NE,46,0.0,0.0,81,0.00,,,0.00,WUHU216WMR968SP,2013-01-26 03:50:00,
2013-01-25 21:55:00,33.4,28.5,29.83,NE,46,0.0,0.0,82,0.00,,,0.00,WUHU216WMR968SP,2013-01-26 03:55:00,
2013-01-25 22:00:00,33.3,28.4,29.83,NE,46,0.0,0.0,82,0.00,,,0.00,WUHU216WMR968SP,2013-01-26 04:00:00,
2013-01-25 22:05:00,33.1,28.5,29.83,NE,46,0.0,0.0,83,0.00,,,0.00,WUHU216WMR968SP,2013-01-26 04:05:00,
2013-01-25 22:10:00,32.9,28.3,29.83,NE,46,0.0,0.0,83,0.00,,,0.00,WUHU216WMR968SP,2013-01-26 04:10:00,
2013-01-25 22:15:00,32.7,28.4,29.85,NE,46,0.0,0.0,84,0.00,,,0.00,WUHU216WMR968SP,2013-01-26 04:15:00,
2013-01-25 22:20:00,32.7,28.4,29.85,NE,46,0.0,0.0,84,0.00,,,0.00,WUHU216WMR968SP,2013-01-26 04:20:00,
2013-01-25 22:25:00,32.5,28.2,29.85,NE,46,0.0,0.0,84,0.00,,,0.00,WUHU216WMR968SP,2013-01-26 04:25:00,
2013-01-25 22:30:00,32.4,28.1,29.83,NE,46,0.0,0.0,84,0.00,,,0.00,WUHU216WMR968SP,2013-01-26 04:30:00,
2013-01-25 22:35:00,32.2,27.9,29.83,NE,46,0.0,0.0,84,0.00,,,0.00,WUHU216WMR968SP,2013-01-26 04:35:00,
2013-01-25 22:40:00,32.2,27.9,29.83,NE,46,0.0,0.0,84,0.00,,,0.00,WUHU216WMR968SP,2013-01-26 04:40:00,
2013-01-25 22:45:00,32.0,27.7,29.83,NE,46,0.0,0.0,84,0.00,,,0.00,WUHU216WMR968SP,2013-01-26 04:45:00,
2013-01-25 22:50:00,31.8,27.5,29.83,NE,46,0.0,0.0,84,0.00,,,0.00,WUHU216WMR968SP,2013-01-26 04:50:00,
2013-01-25 22:55:00,31.6,27.3,29.83,NE,46,0.0,0.0,84,0.00,,,0.00,WUHU216WMR968SP,2013-01-26 04:55:00,
2013-01-25 23:00:00,31.6,27.3,29.85,NE,46,0.0,0.0,84,0.00,,,0.00,WUHU216WMR968SP,2013-01-26 05:00:00,
2013-01-25 23:01:00,31.6,27.3,29.85,NE,46,0.0,0.0,84,0.00,,,0.00,WUHU216WMR968SP,2013-01-26 05:01:00,
2013-01-25 23:06:00,31.5,27.2,29.85,NE,46,0.0,0.0,84,0.00,,,0.00,WUHU216WMR968SP,2013-01-26 05:06:00,
2013-01-25 23:11:00,31.5,27.5,29.85,NE,46,0.0,0.0,85,0.00,,,0.00,WUHU216WMR968SP,2013-01-26 05:11:00,
2013-01-25 23:16:00,31.5,27.5,29.85,NE,46,0.0,0.0,85,0.00,,,0.00,WUHU216WMR968SP,2013-01-26 05:16:00,
2013-01-25 23:21:00,31.5,27.5,29.85,NE,46,0.0,0.0,85,0.00,,,0.00,WUHU216WMR968SP,2013-01-26 05:21:00,
2013-01-25 23:26:00,31.5,27.5,29.85,NE,46,0.0,0.0,85,0.00,,,0.00,WUHU216WMR968SP,2013-01-26 05:26:00,
2013-01-25 23:31:00,31.5,27.5,29.85,NE,46,0.0,0.0,85,0.00,,,0.00,WUHU216WMR968SP,2013-01-26 05:31:00,
2013-01-25 23:36:00,31.3,27.3,29.85,NE,46,0.0,0.0,85,0.00,,,0.00,WUHU216WMR968SP,2013-01-26 05:36:00,
2013-01-25 23:41:00,31.3,27.3,29.85,NE,46,0.0,0.0,85,0.00,,,0.00,WUHU216WMR968SP,2013-01-26 05:41:00,
2013-01-25 23:46:00,31.5,27.5,29.85,NE,46,0.0,0.0,85,0.00,,,0.00,WUHU216WMR968SP,2013-01-26 05:46:00,
2013-01-25 23:51:00,31.5,27.5,29.85,NE,46,0.0,0.0,85,0.00,,,0.00,WUHU216WMR968SP,2013-01-26 05:51:00,
2013-01-25 23:56:00,31.5,27.5,29.85,NE,46,0.0,0.0,85,0.00,,,0.00,WUHU216WMR968SP,2013-01-26 05:56:00,